TimeCDT,TemperatureF,Dew PointF,Humidity,Sea Level PressureIn,VisibilityMPH,Wind Direction,Wind SpeedMPH,Gust SpeedMPH,PrecipitationIn,Events,Conditions,WindDirDegrees,DateUTC
12:56 AM,33.1,23.0,66,30.12,10.0,West,4.6,-,N/A,,Clear,270,2012-10-10 05:56:00
1:56 AM,32.0,23.0,69,30.13,10.0,West,5.8,-,N/A,,Clear,280,2012-10-10 06:56:00
2:56 AM,30.9,23.0,72,30.14,10.0,WNW,6.9,-,N/A,,Clear,290,2012-10-10 07:56:00
3:56 AM,28.9,21.9,75,30.14,10.0,West,6.9,-,N/A,,Clear,280,2012-10-10 08:56:00
4:56 AM,27.0,21.0,78,30.15,10.0,West,4.6,-,N/A,,Clear,270,2012-10-10 09:56:00
5:56 AM,27.0,21.0,78,30.17,10.0,West,5.8,-,N/A,,Clear,270,2012-10-10 10:56:00
6:56 AM,27.0,19.9,75,30.18,10.0,Calm,Calm,-,N/A,,Clear,0,2012-10-10 11:56:00
7:56 AM,27.0,19.9,75,30.19,10.0,Calm,Calm,-,N/A,,Clear,0,2012-10-10 12:56:00
8:56 AM,33.1,21.9,64,30.20,10.0,SW,3.5,-,N/A,,Clear,230,2012-10-10 13:56:00
9:56 AM,43.0,23.0,45,30.18,10.0,West,5.8,-,N/A,,Clear,260,2012-10-10 14:56:00
10:56 AM,48.0,21.0,34,30.16,10.0,SW,9.2,-,N/A,,Clear,220,2012-10-10 15:56:00
11:56 AM,51.1,21.0,31,30.16,10.0,SSW,9.2,16.1,N/A,,Clear,200,2012-10-10 16:56:00
12:56 PM,55.0,21.0,27,30.12,10.0,SSW,10.4,17.3,N/A,,Clear,210,2012-10-10 17:56:00
1:56 PM,57.0,21.9,26,30.08,10.0,SW,9.2,24.2,N/A,,Clear,230,2012-10-10 18:56:00
2:56 PM,60.1,25.0,26,30.04,10.0,SSW,10.4,-,N/A,,Partly Cloudy,200,2012-10-10 19:56:00
3:56 PM,60.1,26.1,27,30.01,10.0,SW,13.8,20.7,N/A,,Partly Cloudy,220,2012-10-10 20:56:00
4:56 PM,62.1,28.9,29,29.97,10.0,SSW,12.7,24.2,N/A,,Clear,210,2012-10-10 21:56:00
5:56 PM,62.1,28.9,29,29.95,10.0,SSW,12.7,19.6,N/A,,Clear,210,2012-10-10 22:56:00
6:56 PM,59.0,28.9,32,29.94,10.0,SSW,9.2,-,N/A,,Clear,200,2012-10-10 23:56:00
7:56 PM,55.9,28.9,36,29.94,10.0,South,9.2,-,N/A,,Clear,180,2012-10-11 00:56:00
8:56 PM,54.0,28.9,38,29.92,10.0,South,12.7,-,N/A,,Clear,190,2012-10-11 01:56:00
9:56 PM,55.9,30.0,37,29.90,10.0,SSW,13.8,21.9,N/A,,Clear,200,2012-10-11 02:56:00
10:56 PM,55.9,30.0,37,29.89,10.0,SSW,15.0,24.2,N/A,,Clear,210,2012-10-11 03:56:00
11:56 PM,55.0,28.9,37,29.88,10.0,SSW,15.0,23.0,N/A,,Clear,200,2012-10-11 04:56:00